Aérodrome :
LOGIN :

S'inscrire | Disclaimer

   EN    FR    IT 

 










Légende :    VFR   VFR Marginal   IFR   IFR Intensif   IFR Très Intensif
Visi : 
Plafond : 
>= 8 km
>= 3000ft
5 à 8 km
1000 à 3000 ft
1500m à 5 km
500 à 1000 ft
800 à 1500m
200 à 500 ft
< 800m
< 200 ft
Symboles :   Orages  Brouillard  Fortes neiges  Fortes précipitations  Vent > 20 kt
SIGMETs :   Divers  Orages  Givrage  Turbulence  Onde Orograph.  Cendres Volcan.







- Altitude de l'aérodrome : 26 ft
- Code IATA : BIA
- Voir les cartes d'approche


LFKB - Bastia

DERNIER METAR :
  • 192100Z AUTO 24004KT CAVOK 20/19 Q1018 NOSIG

METARs EXPIRÉS :
  • 192030Z AUTO 22002KT CAVOK 21/19 Q1018 NOSIG
  • 192000Z AUTO VRB02KT CAVOK 21/20 Q1018 NOSIG
  • 191930Z AUTO 20004KT CAVOK 21/20 Q1018 NOSIG
  • 191900Z AUTO 21003KT CAVOK 22/20 Q1018 NOSIG
  • 191830Z AUTO VRB03KT CAVOK 22/21 Q1018 NOSIG

TAF TAF LFKB
Valide du 19 à 21h jusqu'au 20 à 21h UTC


192000Z 1921/2021 24004KT CAVOK TX29/2012Z TN18/2003Z
BECMG 2007/2010 04008KT
ATIS : +33 4 95 59 19 40
Pas de NOTAMs connus pour ce terrain.



MET'MAP, la Météo Aéronautique d'un coup d'oeil ! - Copyright ORBIFLY Décembre 2007 - Disclaimer

ORBIFLY MET'MAP TEAM :

Programmation & Développement : Alexandra Zaïnal
Conception & Développement : Baudouin d'Aumeries
Co-Programmation & Développement : Marc-Olivier Méhu
Soutien technique & logistique : Manuel Goepfert

Contact : metmap@orbifly.com




SOURCES & CREDITS :

   NOAA